PTI737 KHOU-PANC

Flight info

Callsign PTI737
Flight time N/A
Altitude 36000
Route STYCK8 STYCK SPS J168 LAA LAR BOY HLN YXC YXS DUXAR SSR J541 YAK J501 JOH PTERS3
Aircraft B737/M-SDE2E3FGHIRWXY/LB1

Departure

Time 2026-05-06 23:02
Airport William P. Hobby Airport (KHOU)

Arrival

Time N/A
Airport Ted Stevens Anchorage International Airport (PANC)
Time Latitude Longitude Altitude Speed Heading
2026-05-06 22:48 29.65681 -95.27114 51 ft 0 kts 90°
2026-05-06 22:58 29.65670 -95.27105 48 ft 8 kts 163°
2026-05-06 22:58 29.65554 -95.27144 51 ft 22 kts 213°
2026-05-06 22:58 29.65480 -95.27156 51 ft 9 kts 91°
2026-05-06 22:59 29.65483 -95.27053 51 ft 16 kts 88°
2026-05-06 22:59 29.65468 -95.26952 47 ft 5 kts 131°
2026-05-06 22:59 29.65466 -95.26949 48 ft 0 kts 131°
2026-05-06 22:59 29.65457 -95.26937 50 ft 8 kts 131°
2026-05-06 23:00 29.65394 -95.26895 51 ft 0 kts 220°
2026-05-06 23:02 29.65248 -95.27047 48 ft 72 kts 222°
2026-05-06 23:02 29.64673 -95.27679 54 ft 152 kts 221°
2026-05-06 23:02 29.63911 -95.28506 1045 ft 133 kts 219°
2026-05-06 23:02 29.63214 -95.29226 1884 ft 147 kts 221°
2026-05-06 23:03 29.62368 -95.30107 2275 ft 178 kts 222°
2026-05-06 23:03 29.61374 -95.31138 2612 ft 211 kts 222°
2026-05-06 23:03 29.60224 -95.32347 3082 ft 230 kts 222°
2026-05-06 23:03 29.59060 -95.33629 3811 ft 235 kts 227°
2026-05-06 23:04 29.57729 -95.34728 4510 ft 240 kts 197°
2026-05-06 23:04 29.56022 -95.34706 5168 ft 255 kts 164°
2026-05-06 23:04 29.54530 -95.33520 5585 ft 280 kts 129°
2026-05-06 23:04 29.53809 -95.31424 6410 ft 290 kts 95°
2026-05-06 23:05 29.54158 -95.29117 7270 ft 296 kts 63°
2026-05-06 23:05 29.55457 -95.27329 8062 ft 301 kts 33°
2026-05-06 23:05 29.57283 -95.26132 8894 ft 306 kts 26°
2026-05-06 23:05 29.59166 -95.24948 9704 ft 312 kts 26°
2026-05-06 23:06 29.61088 -95.23738 10387 ft 320 kts 26°
2026-05-06 23:06 29.63096 -95.22478 10877 ft 335 kts 26°
2026-05-06 23:06 29.65166 -95.21180 11564 ft 342 kts 26°
2026-05-06 23:06 29.67276 -95.19859 12282 ft 349 kts 24°
2026-05-06 23:07 29.69565 -95.18976 12939 ft 347 kts 360°
2026-05-06 23:07 29.71932 -95.19157 13732 ft 339 kts 338°
2026-05-06 23:07 29.74092 -95.20138 14528 ft 331 kts 327°
2026-05-06 23:07 29.76162 -95.21301 15365 ft 332 kts 326°
2026-05-06 23:08 29.78239 -95.22513 16105 ft 336 kts 325°
2026-05-06 23:08 29.80336 -95.23739 16853 ft 340 kts 325°
2026-05-06 23:08 29.82461 -95.24970 17580 ft 344 kts 325°
2026-05-06 23:08 29.84614 -95.26207 18295 ft 347 kts 325°
2026-05-06 23:09 29.86818 -95.27465 18931 ft 351 kts 325°
2026-05-06 23:09 29.89016 -95.28715 19566 ft 354 kts 325°
2026-05-06 23:09 29.91200 -95.29955 20201 ft 357 kts 324°
2026-05-06 23:09 29.93439 -95.31226 20847 ft 361 kts 324°
2026-05-06 23:10 29.95692 -95.32503 21491 ft 364 kts 324°
2026-05-06 23:10 29.97976 -95.33800 22117 ft 368 kts 324°
2026-05-06 23:10 30.00292 -95.35116 22683 ft 373 kts 324°
2026-05-06 23:10 30.02632 -95.36444 23367 ft 376 kts 324°
2026-05-06 23:11 30.04982 -95.37778 23966 ft 377 kts 323°
2026-05-06 23:11 30.07343 -95.39120 24525 ft 379 kts 323°
2026-05-06 23:11 30.09717 -95.40471 25073 ft 382 kts 323°
2026-05-06 23:11 30.12112 -95.41824 25638 ft 385 kts 323°
2026-05-06 23:12 30.14528 -95.43182 26211 ft 388 kts 323°
2026-05-06 23:12 30.16965 -95.44549 26778 ft 390 kts 323°
2026-05-06 23:12 30.19411 -95.45923 27303 ft 392 kts 323°
2026-05-06 23:12 30.21869 -95.47305 27861 ft 394 kts 323°
2026-05-06 23:13 30.24336 -95.48693 28366 ft 396 kts 323°
2026-05-06 23:13 30.26825 -95.50098 28847 ft 399 kts 323°
2026-05-06 23:13 30.29327 -95.51509 29345 ft 402 kts 323°
2026-05-06 23:13 30.31855 -95.52938 29768 ft 406 kts 323°
2026-05-06 23:14 30.34405 -95.54379 30160 ft 409 kts 323°
2026-05-06 23:14 30.36968 -95.55826 30567 ft 410 kts 323°
2026-05-06 23:14 30.39534 -95.57275 30967 ft 411 kts 323°
2026-05-06 23:14 30.42112 -95.58732 31338 ft 413 kts 323°
2026-05-06 23:15 30.44701 -95.60197 31694 ft 415 kts 323°
2026-05-06 23:15 30.47305 -95.61671 32036 ft 417 kts 323°
2026-05-06 23:15 30.49912 -95.63149 32373 ft 418 kts 323°
2026-05-06 23:15 30.52533 -95.64635 32706 ft 420 kts 323°
2026-05-06 23:16 30.55179 -95.66116 33018 ft 423 kts 323°
2026-05-06 23:16 30.57851 -95.67557 33321 ft 425 kts 324°
2026-05-06 23:16 30.60547 -95.68986 33618 ft 427 kts 324°
2026-05-06 23:16 30.63251 -95.70415 33911 ft 428 kts 324°
2026-05-06 23:17 30.65967 -95.71854 34144 ft 430 kts 324°
2026-05-06 23:17 30.68697 -95.73307 34299 ft 434 kts 324°
2026-05-06 23:17 30.71448 -95.74776 34505 ft 435 kts 324°
2026-05-06 23:17 30.74198 -95.76245 34760 ft 435 kts 324°
2026-05-06 23:18 30.76952 -95.77719 35005 ft 436 kts 324°
2026-05-06 23:18 30.79710 -95.79197 35211 ft 437 kts 323°
2026-05-06 23:18 30.82471 -95.80679 35412 ft 438 kts 323°
2026-05-06 23:18 30.85246 -95.82170 35626 ft 440 kts 323°
2026-05-06 23:19 30.88024 -95.83662 35829 ft 440 kts 323°
2026-05-06 23:19 30.90801 -95.85153 36131 ft 438 kts 323°
2026-05-06 23:19 30.93559 -95.86633 36480 ft 435 kts 323°
2026-05-06 23:19 30.96303 -95.88108 36799 ft 434 kts 323°
2026-05-06 23:20 30.99041 -95.89584 37028 ft 433 kts 323°
2026-05-06 23:20 31.01776 -95.91060 37232 ft 433 kts 322°
2026-05-06 23:20 31.04506 -95.92534 37457 ft 432 kts 322°
2026-05-06 23:20 31.07229 -95.94004 37707 ft 430 kts 322°
2026-05-06 23:21 31.09940 -95.95467 37916 ft 430 kts 322°
2026-05-06 23:21 31.15016 -95.98967 37928 ft 418 kts 310°
2026-05-06 23:22 31.19665 -96.03116 37935 ft 423 kts 310°
2026-05-06 23:22 31.24353 -96.07313 37924 ft 426 kts 310°
2026-05-06 23:23 31.29084 -96.11516 37919 ft 428 kts 310°
2026-05-06 23:23 31.33803 -96.15693 37922 ft 428 kts 310°
2026-05-06 23:24 31.38581 -96.19923 37960 ft 428 kts 310°
2026-05-06 23:24 31.43282 -96.24088 37938 ft 426 kts 310°
2026-05-06 23:25 31.47993 -96.28270 37940 ft 423 kts 310°
2026-05-06 23:25 31.52673 -96.32432 37936 ft 422 kts 310°
2026-05-06 23:26 31.57338 -96.36587 37938 ft 420 kts 310°
2026-05-06 23:26 31.61990 -96.40736 37945 ft 420 kts 310°
2026-05-06 23:27 31.66632 -96.44882 37994 ft 419 kts 309°
2026-05-06 23:27 31.71268 -96.49026 37991 ft 418 kts 309°
2026-05-06 23:28 31.75886 -96.53160 37989 ft 418 kts 309°
2026-05-06 23:28 31.80507 -96.57302 37986 ft 418 kts 309°
2026-05-06 23:29 31.85123 -96.61446 37982 ft 418 kts 309°
2026-05-06 23:29 31.89745 -96.65600 37977 ft 418 kts 309°
2026-05-06 23:30 31.94371 -96.69763 37993 ft 419 kts 309°
2026-05-06 23:30 31.99001 -96.73934 37988 ft 419 kts 309°
2026-05-06 23:31 32.03634 -96.78113 37994 ft 419 kts 309°
2026-05-06 23:31 32.08265 -96.82296 37993 ft 419 kts 309°
2026-05-06 23:32 32.12893 -96.86481 37983 ft 420 kts 308°
2026-05-06 23:32 32.17527 -96.90678 38041 ft 420 kts 308°
2026-05-06 23:33 32.22167 -96.94888 38010 ft 421 kts 308°
2026-05-06 23:33 32.26811 -96.99104 37999 ft 421 kts 308°
2026-05-06 23:34 32.31447 -97.03317 37998 ft 420 kts 308°
2026-05-06 23:34 32.36081 -97.07537 38009 ft 420 kts 308°
2026-05-06 23:35 32.40714 -97.11760 38004 ft 420 kts 308°
2026-05-06 23:35 32.45336 -97.15979 38012 ft 419 kts 308°
2026-05-06 23:36 32.49949 -97.20194 38021 ft 418 kts 308°
2026-05-06 23:36 32.54548 -97.24403 38027 ft 417 kts 308°
2026-05-06 23:37 32.59139 -97.28612 38034 ft 417 kts 308°
2026-05-06 23:37 32.63724 -97.32821 38029 ft 417 kts 308°
2026-05-06 23:38 32.68282 -97.37011 38062 ft 417 kts 307°
2026-05-06 23:38 32.72877 -97.41240 38017 ft 417 kts 307°
2026-05-06 23:39 32.77459 -97.45459 38011 ft 416 kts 307°
2026-05-06 23:39 32.82021 -97.49666 38004 ft 415 kts 307°
2026-05-06 23:40 32.86569 -97.53868 37955 ft 414 kts 307°
2026-05-06 23:40 32.91106 -97.58067 37948 ft 413 kts 307°
2026-05-06 23:41 32.95643 -97.62271 37947 ft 414 kts 307°
2026-05-06 23:41 32.99413 -97.65769 37949 ft 414 kts 307°
2026-05-06 23:42 33.03955 -97.69987 37950 ft 414 kts 307°
2026-05-06 23:42 33.08494 -97.74207 38036 ft 414 kts 307°
2026-05-06 23:43 33.13030 -97.78431 38042 ft 414 kts 307°
2026-05-06 23:43 33.17568 -97.82663 38049 ft 414 kts 307°
2026-05-06 23:44 33.22107 -97.86900 38050 ft 414 kts 307°
2026-05-06 23:44 33.26645 -97.91144 38048 ft 414 kts 307°
2026-05-06 23:45 33.31186 -97.95395 38032 ft 415 kts 307°
2026-05-06 23:45 33.35762 -97.99685 38020 ft 415 kts 307°
2026-05-06 23:46 33.40275 -98.03921 38015 ft 415 kts 307°
2026-05-06 23:46 33.44826 -98.08200 38026 ft 417 kts 306°
2026-05-06 23:47 33.49382 -98.12489 38006 ft 416 kts 306°
2026-05-06 23:47 33.53935 -98.16779 38005 ft 416 kts 306°
2026-05-06 23:48 33.58479 -98.21067 38005 ft 415 kts 306°
2026-05-06 23:48 33.63017 -98.25357 38006 ft 415 kts 306°
2026-05-06 23:49 33.67549 -98.29646 38058 ft 415 kts 306°
2026-05-06 23:49 33.72081 -98.33944 38012 ft 415 kts 306°
2026-05-06 23:50 33.76614 -98.38247 38013 ft 415 kts 306°
2026-05-06 23:50 33.83402 -98.44700 38058 ft 415 kts 306°
2026-05-06 23:51 33.87921 -98.49005 38057 ft 414 kts 306°
2026-05-06 23:51 33.92436 -98.53312 38106 ft 414 kts 306°
2026-05-06 23:52 33.96953 -98.57627 38042 ft 414 kts 306°
2026-05-06 23:52 34.01507 -98.61911 38028 ft 417 kts 307°
2026-05-06 23:53 34.06145 -98.66113 38023 ft 417 kts 307°
2026-05-06 23:53 34.10789 -98.70310 38016 ft 417 kts 307°
2026-05-06 23:54 34.15422 -98.74520 38011 ft 417 kts 307°
2026-05-06 23:54 34.20053 -98.78748 38013 ft 418 kts 307°
2026-05-06 23:55 34.24692 -98.82990 38007 ft 418 kts 307°
2026-05-06 23:55 34.29327 -98.87234 38019 ft 418 kts 307°
2026-05-06 23:56 34.33958 -98.91482 38013 ft 418 kts 307°
2026-05-06 23:56 34.38586 -98.95732 38013 ft 417 kts 307°
2026-05-06 23:57 34.43208 -98.99984 38029 ft 418 kts 306°
2026-05-06 23:57 34.47828 -99.04239 38015 ft 417 kts 306°
2026-05-06 23:58 34.52437 -99.08490 38024 ft 416 kts 306°
2026-05-06 23:58 34.57039 -99.12741 38031 ft 416 kts 306°
2026-05-06 23:59 34.61634 -99.16993 38038 ft 415 kts 306°
2026-05-06 23:59 34.66230 -99.21252 38068 ft 416 kts 306°
2026-05-07 00:00 34.70823 -99.25514 38041 ft 415 kts 306°
2026-05-07 00:00 34.75416 -99.29781 38057 ft 415 kts 306°
2026-05-07 00:01 34.80003 -99.34048 38053 ft 415 kts 306°
2026-05-07 00:01 34.84557 -99.38291 38021 ft 415 kts 306°
2026-05-07 00:02 34.89138 -99.42565 38080 ft 415 kts 306°
2026-05-07 00:02 34.93744 -99.46869 38087 ft 414 kts 306°
2026-05-07 00:03 34.98311 -99.51143 38061 ft 413 kts 306°
2026-05-07 00:03 35.02866 -99.55410 38045 ft 412 kts 306°
2026-05-07 00:04 35.07404 -99.59668 38055 ft 411 kts 305°
2026-05-07 00:04 35.11897 -99.63890 38115 ft 410 kts 305°
2026-05-07 00:05 35.16411 -99.68141 38069 ft 410 kts 305°
2026-05-07 00:05 35.20920 -99.72391 38066 ft 409 kts 305°
2026-05-07 00:06 35.25448 -99.76665 38069 ft 408 kts 305°
2026-05-07 00:06 35.29935 -99.80906 38075 ft 408 kts 305°
2026-05-07 00:07 35.34393 -99.85128 38091 ft 408 kts 305°
2026-05-07 00:07 35.38920 -99.89424 38082 ft 409 kts 306°
2026-05-07 00:08 35.43422 -99.93698 38081 ft 410 kts 306°
2026-05-07 00:08 35.47934 -99.97987 38086 ft 410 kts 306°
2026-05-07 00:09 35.52445 -100.02281 38076 ft 411 kts 306°
2026-05-07 00:09 35.56956 -100.06582 38095 ft 411 kts 305°
2026-05-07 00:10 35.61468 -100.10891 38092 ft 411 kts 305°
2026-05-07 00:10 35.65977 -100.15202 38089 ft 411 kts 305°
2026-05-07 00:11 35.70484 -100.19519 38088 ft 411 kts 305°
2026-05-07 00:11 35.74993 -100.23846 38083 ft 412 kts 306°
2026-05-07 00:12 35.79513 -100.28189 38085 ft 413 kts 306°
2026-05-07 00:12 35.84053 -100.32559 38093 ft 415 kts 306°
2026-05-07 00:13 35.88608 -100.36947 38107 ft 416 kts 307°
2026-05-07 00:13 35.93170 -100.41347 38115 ft 416 kts 307°
2026-05-07 00:14 35.97735 -100.45757 38114 ft 417 kts 307°
2026-05-07 00:14 36.02300 -100.50174 38103 ft 417 kts 307°
2026-05-07 00:15 36.06866 -100.54601 38114 ft 418 kts 307°
2026-05-07 00:15 36.11443 -100.59045 38120 ft 419 kts 308°
2026-05-07 00:16 36.15997 -100.63472 38129 ft 419 kts 308°
2026-05-07 00:16 36.20589 -100.67943 38131 ft 420 kts 308°
2026-05-07 00:17 36.25177 -100.72416 38137 ft 420 kts 308°
2026-05-07 00:17 36.29775 -100.76909 38143 ft 422 kts 309°
2026-05-07 00:18 36.34391 -100.81425 38141 ft 423 kts 309°
2026-05-07 00:18 36.39014 -100.85953 38140 ft 424 kts 309°
2026-05-07 00:19 36.43640 -100.90492 38144 ft 424 kts 309°
2026-05-07 00:19 36.48268 -100.95039 38145 ft 424 kts 309°
2026-05-07 00:20 36.52910 -100.99611 38153 ft 427 kts 310°
2026-05-07 00:20 36.57563 -101.04198 38160 ft 427 kts 310°
2026-05-07 00:21 36.62224 -101.08799 38160 ft 427 kts 310°
2026-05-07 00:21 36.66874 -101.13397 38160 ft 427 kts 310°
2026-05-07 00:22 36.71526 -101.18005 38203 ft 427 kts 311°
2026-05-07 00:22 36.76176 -101.22620 38175 ft 427 kts 311°
2026-05-07 00:23 36.80831 -101.27246 38158 ft 428 kts 311°
2026-05-07 00:23 36.84695 -101.31092 38170 ft 428 kts 311°
2026-05-07 00:24 36.89346 -101.35728 38159 ft 428 kts 311°
2026-05-07 00:24 36.93994 -101.40368 38202 ft 428 kts 312°
2026-05-07 00:25 36.98651 -101.45026 38180 ft 429 kts 312°
2026-05-07 00:25 37.03318 -101.49701 38173 ft 430 kts 312°
2026-05-07 00:26 37.07987 -101.54384 38173 ft 430 kts 312°
2026-05-07 00:26 37.12659 -101.59078 38171 ft 430 kts 312°
2026-05-07 00:27 37.17328 -101.63778 38176 ft 432 kts 313°
2026-05-07 00:27 37.22011 -101.68499 38181 ft 432 kts 313°
2026-05-07 00:28 37.26696 -101.73230 38182 ft 432 kts 313°
2026-05-07 00:28 37.31382 -101.77968 38172 ft 432 kts 313°
2026-05-07 00:29 37.36063 -101.82709 38214 ft 432 kts 313°
2026-05-07 00:30 37.45405 -101.92197 38178 ft 431 kts 313°
2026-05-07 00:30 37.50063 -101.96939 38188 ft 430 kts 313°
2026-05-07 00:31 37.54714 -102.01682 38186 ft 430 kts 313°
2026-05-07 00:31 37.59358 -102.06428 38200 ft 430 kts 314°
2026-05-07 00:32 37.64003 -102.11181 38189 ft 429 kts 314°
2026-05-07 00:32 37.68639 -102.15931 38188 ft 429 kts 314°
2026-05-07 00:33 37.73269 -102.20684 38191 ft 429 kts 314°
2026-05-07 00:33 37.77895 -102.25442 38191 ft 429 kts 314°
2026-05-07 00:34 37.82518 -102.30203 38192 ft 429 kts 314°
2026-05-07 00:34 37.87141 -102.34974 38196 ft 429 kts 314°
2026-05-07 00:35 37.91765 -102.39753 38194 ft 429 kts 314°
2026-05-07 00:35 37.96387 -102.44538 38186 ft 429 kts 314°
2026-05-07 00:36 38.01024 -102.49348 38199 ft 431 kts 315°
2026-05-07 00:36 38.05675 -102.54180 38193 ft 433 kts 315°
2026-05-07 00:37 38.10341 -102.59034 38190 ft 434 kts 315°
2026-05-07 00:37 38.15011 -102.63901 38184 ft 435 kts 315°
2026-05-07 00:38 38.19688 -102.68777 38185 ft 435 kts 316°
2026-05-07 00:38 38.24559 -102.73389 38188 ft 437 kts 319°
2026-05-07 00:39 38.29527 -102.77853 38176 ft 436 kts 320°
2026-05-07 00:39 38.34470 -102.82316 38184 ft 435 kts 320°
2026-05-07 00:40 38.39381 -102.86797 38190 ft 433 kts 319°
2026-05-07 00:40 38.44272 -102.91288 38191 ft 434 kts 320°
2026-05-07 00:41 38.49160 -102.95789 38193 ft 433 kts 320°
2026-05-07 00:41 38.54050 -103.00299 38188 ft 433 kts 320°
2026-05-07 00:42 38.58939 -103.04814 38187 ft 433 kts 320°
2026-05-07 00:42 38.63825 -103.09335 38189 ft 434 kts 320°
2026-05-07 00:43 38.68721 -103.13872 38175 ft 434 kts 320°
2026-05-07 00:43 38.73617 -103.18417 38192 ft 435 kts 320°
2026-05-07 00:44 38.78516 -103.22973 38183 ft 436 kts 320°
2026-05-07 00:44 38.83423 -103.27543 38197 ft 436 kts 321°
2026-05-07 00:45 38.88329 -103.32122 38184 ft 435 kts 321°
2026-05-07 00:45 38.93187 -103.36662 38178 ft 435 kts 321°
2026-05-07 00:46 38.98069 -103.41233 38179 ft 434 kts 321°
2026-05-07 00:46 39.02944 -103.45806 38192 ft 433 kts 321°
2026-05-07 00:47 39.07811 -103.50380 38152 ft 432 kts 322°
2026-05-07 00:47 39.12659 -103.54943 38155 ft 431 kts 322°
2026-05-07 00:48 39.17489 -103.59496 38151 ft 430 kts 322°
2026-05-07 00:48 39.22307 -103.64047 38160 ft 429 kts 322°
2026-05-07 00:49 39.27115 -103.68598 38158 ft 429 kts 322°